Time,TemperatureF,DewpointF,PressureIn,WindDirection,WindDirectionDegrees,WindSpeedMPH,WindSpeedGustMPH,Humidity,HourlyPrecipIn,Conditions,Clouds,dailyrainin,SoftwareType,DateUTC
2013-08-27 00:09:00,73.2,71.0,30.04,NE,52,0.0,4.0,94,0.00,,,0.00,weatherlink.com 1.10,2013-08-27 04:09:00,
2013-08-27 00:24:00,73.1,71.0,30.05,NE,52,2.0,4.0,94,0.00,,,0.00,weatherlink.com 1.10,2013-08-27 04:24:00,
2013-08-27 00:39:00,73.0,71.0,30.05,NE,52,3.0,4.0,94,0.00,,,0.00,weatherlink.com 1.10,2013-08-27 04:39:00,
2013-08-27 00:54:00,73.1,72.0,30.05,NE,52,2.0,5.0,95,0.00,,,0.00,weatherlink.com 1.10,2013-08-27 04:54:00,
2013-08-27 01:09:00,73.1,71.0,30.04,NE,52,0.0,4.0,94,0.00,,,0.00,weatherlink.com 1.10,2013-08-27 05:09:00,
2013-08-27 01:24:00,72.9,71.0,30.04,NE,52,4.0,4.0,94,0.00,,,0.00,weatherlink.com 1.10,2013-08-27 05:24:00,
2013-08-27 01:39:00,72.8,71.0,30.03,NE,52,3.0,4.0,94,0.00,,,0.00,weatherlink.com 1.10,2013-08-27 05:39:00,
2013-08-27 01:54:00,72.6,71.0,30.02,NE,52,3.0,3.0,94,0.00,,,0.00,weatherlink.com 1.10,2013-08-27 05:54:00,
2013-08-27 02:09:00,72.7,71.0,30.02,NE,52,3.0,6.0,95,0.00,,,0.00,weatherlink.com 1.10,2013-08-27 06:09:00,
2013-08-27 02:24:00,72.6,71.0,30.02,NE,52,4.0,5.0,95,0.00,,,0.00,weatherlink.com 1.10,2013-08-27 06:24:00,
2013-08-27 02:39:00,72.5,71.0,30.01,NE,52,0.0,4.0,95,0.00,,,0.00,weatherlink.com 1.10,2013-08-27 06:39:00,
2013-08-27 02:54:00,72.5,71.0,30.01,NE,52,4.0,4.0,95,0.00,,,0.00,weatherlink.com 1.10,2013-08-27 06:54:00,
2013-08-27 03:09:00,72.5,71.0,30.01,NE,52,2.0,5.0,95,0.00,,,0.00,weatherlink.com 1.10,2013-08-27 07:09:00,
2013-08-27 03:24:00,72.5,71.0,30.01,NE,52,3.0,5.0,95,0.00,,,0.00,weatherlink.com 1.10,2013-08-27 07:24:00,
2013-08-27 03:39:00,72.5,71.0,30.00,NE,52,0.0,4.0,95,0.00,,,0.00,weatherlink.com 1.10,2013-08-27 07:39:00,
2013-08-27 03:54:00,72.5,71.0,30.00,NE,52,2.0,4.0,95,0.00,,,0.00,weatherlink.com 1.10,2013-08-27 07:54:00,
2013-08-27 04:09:00,72.5,71.0,30.00,NE,52,2.0,4.0,95,0.00,,,0.00,weatherlink.com 1.10,2013-08-27 08:09:00,
2013-08-27 04:24:00,72.6,71.0,30.00,NE,52,3.0,6.0,95,0.00,,,0.00,weatherlink.com 1.10,2013-08-27 08:24:00,
2013-08-27 04:39:00,72.8,71.0,30.00,NE,52,5.0,6.0,95,0.00,,,0.00,weatherlink.com 1.10,2013-08-27 08:39:00,
2013-08-27 04:54:00,72.8,71.0,30.00,NE,52,3.0,5.0,95,0.00,,,0.00,weatherlink.com 1.10,2013-08-27 08:54:00,
2013-08-27 05:09:00,72.8,71.0,30.00,NE,52,3.0,5.0,95,0.00,,,0.00,weatherlink.com 1.10,2013-08-27 09:09:00,
2013-08-27 05:24:00,72.8,71.0,30.00,NE,52,4.0,5.0,95,0.00,,,0.00,weatherlink.com 1.10,2013-08-27 09:24:00,
2013-08-27 05:39:00,72.9,71.0,30.00,NE,52,3.0,5.0,95,0.00,,,0.00,weatherlink.com 1.10,2013-08-27 09:39:00,
2013-08-27 05:54:00,72.8,71.0,30.00,NE,52,3.0,4.0,95,0.00,,,0.00,weatherlink.com 1.10,2013-08-27 09:54:00,
2013-08-27 06:09:00,72.8,71.0,30.00,NE,52,2.0,3.0,95,0.00,,,0.00,weatherlink.com 1.10,2013-08-27 10:09:00,
2013-08-27 06:24:00,72.8,71.0,30.00,NE,52,3.0,5.0,95,0.00,,,0.00,weatherlink.com 1.10,2013-08-27 10:24:00,
2013-08-27 06:39:00,72.9,72.0,30.00,NE,52,2.0,5.0,96,0.00,,,0.00,weatherlink.com 1.10,2013-08-27 10:39:00,
2013-08-27 06:54:00,72.9,72.0,30.00,NE,52,4.0,5.0,96,0.00,,,0.00,weatherlink.com 1.10,2013-08-27 10:54:00,
2013-08-27 07:09:00,72.9,71.0,30.01,NE,52,2.0,5.0,95,0.00,,,0.00,weatherlink.com 1.10,2013-08-27 11:09:00,
2013-08-27 07:24:00,72.9,72.0,30.01,NE,52,3.0,5.0,96,0.00,,,0.00,weatherlink.com 1.10,2013-08-27 11:24:00,
2013-08-27 07:39:00,73.3,72.0,30.02,NE,52,3.0,5.0,96,0.00,,,0.00,weatherlink.com 1.10,2013-08-27 11:39:00,
2013-08-27 07:54:00,73.6,72.0,30.02,NE,52,4.0,5.0,96,0.00,,,0.00,weatherlink.com 1.10,2013-08-27 11:54:00,
2013-08-27 08:09:00,73.9,73.0,30.03,NE,52,4.0,5.0,96,0.00,,,0.00,weatherlink.com 1.10,2013-08-27 12:09:00,
2013-08-27 08:24:00,74.4,73.0,30.03,NE,52,4.0,6.0,96,0.00,,,0.00,weatherlink.com 1.10,2013-08-27 12:24:00,
2013-08-27 08:39:00,75.0,74.0,30.03,NE,46,6.0,7.0,96,0.00,,,0.00,weatherlink.com 1.10,2013-08-27 12:39:00,
2013-08-27 08:54:00,75.7,75.0,30.02,NE,54,5.0,9.0,96,0.00,,,0.00,weatherlink.com 1.10,2013-08-27 12:54:00,
2013-08-27 09:09:00,76.4,75.0,30.03,NE,56,5.0,8.0,96,0.00,,,0.00,weatherlink.com 1.10,2013-08-27 13:09:00,
2013-08-27 09:24:00,77.1,76.0,30.04,ENE,66,8.0,10.0,96,0.00,,,0.00,weatherlink.com 1.10,2013-08-27 13:24:00,
2013-08-27 09:39:00,77.7,76.0,30.04,ENE,60,6.0,11.0,95,0.00,,,0.00,weatherlink.com 1.10,2013-08-27 13:39:00,
2013-08-27 09:55:00,78.5,77.0,30.04,ENE,57,4.0,9.0,95,0.00,,,0.00,weatherlink.com 1.10,2013-08-27 13:55:00,
2013-08-27 10:10:00,79.3,78.0,30.05,ENE,61,6.0,8.0,94,0.00,,,0.00,weatherlink.com 1.10,2013-08-27 14:10:00,
2013-08-27 10:25:00,80.2,78.0,30.05,East,79,7.0,11.0,93,0.00,,,0.00,weatherlink.com 1.10,2013-08-27 14:25:00,
2013-08-27 10:40:00,81.2,78.0,30.05,NE,49,7.0,12.0,91,0.00,,,0.00,weatherlink.com 1.10,2013-08-27 14:40:00,
2013-08-27 10:55:00,82.1,79.0,30.05,ENE,64,9.0,15.0,89,0.00,,,0.00,weatherlink.com 1.10,2013-08-27 14:55:00,
2013-08-27 11:10:00,82.7,78.0,30.05,NE,48,12.0,12.0,85,0.00,,,0.00,weatherlink.com 1.10,2013-08-27 15:10:00,
2013-08-27 11:25:00,83.3,78.0,30.06,ENE,60,6.0,11.0,85,0.00,,,0.00,weatherlink.com 1.10,2013-08-27 15:25:00,
2013-08-27 11:40:00,84.3,79.0,30.06,NE,47,8.0,10.0,84,0.00,,,0.00,weatherlink.com 1.10,2013-08-27 15:40:00,
2013-08-27 11:55:00,85.4,79.0,30.06,NE,47,7.0,10.0,80,0.00,,,0.00,weatherlink.com 1.10,2013-08-27 15:55:00,
2013-08-27 12:10:00,86.0,78.0,30.05,ENE,58,8.0,9.0,78,0.00,,,0.00,weatherlink.com 1.10,2013-08-27 16:10:00,
2013-08-27 12:25:00,85.9,78.0,30.04,NE,52,5.0,9.0,78,0.00,,,0.00,weatherlink.com 1.10,2013-08-27 16:25:00,
2013-08-27 12:40:00,86.5,78.0,30.03,NE,48,1.0,9.0,76,0.00,,,0.00,weatherlink.com 1.10,2013-08-27 16:40:00,
2013-08-27 12:55:00,87.6,79.0,30.02,ENE,72,4.0,10.0,76,0.00,,,0.00,weatherlink.com 1.10,2013-08-27 16:55:00,
2013-08-27 13:10:00,88.4,78.0,30.02,NE,56,2.0,8.0,72,0.00,,,0.00,weatherlink.com 1.10,2013-08-27 17:10:00,
2013-08-27 13:25:00,87.5,76.0,30.02,ESE,113,2.0,11.0,69,0.00,,,0.00,weatherlink.com 1.10,2013-08-27 17:25:00,
2013-08-27 13:40:00,88.1,76.0,30.01,SSE,147,9.0,12.0,68,0.00,,,0.00,weatherlink.com 1.10,2013-08-27 17:40:00,
2013-08-27 13:55:00,88.8,76.0,30.00,ESE,120,6.0,8.0,66,0.00,,,0.00,weatherlink.com 1.10,2013-08-27 17:55:00,
2013-08-27 14:10:00,88.9,77.0,30.00,East,99,7.0,9.0,68,0.00,,,0.00,weatherlink.com 1.10,2013-08-27 18:10:00,
2013-08-27 14:25:00,88.4,76.0,30.00,ESE,121,2.0,8.0,66,0.00,,,0.00,weatherlink.com 1.10,2013-08-27 18:25:00,
2013-08-27 14:40:00,88.6,75.0,29.99,SE,140,1.0,9.0,65,0.00,,,0.00,weatherlink.com 1.10,2013-08-27 18:40:00,
2013-08-27 14:55:00,88.5,75.0,30.00,ESE,104,0.0,7.0,65,0.00,,,0.00,weatherlink.com 1.10,2013-08-27 18:55:00,
2013-08-27 15:10:00,88.3,76.0,30.00,East,79,6.0,8.0,68,0.03,,,0.03,weatherlink.com 1.10,2013-08-27 19:10:00,
2013-08-27 15:25:00,85.0,75.0,29.99,SSW,194,2.0,7.0,73,0.24,,,0.24,weatherlink.com 1.10,2013-08-27 19:25:00,
2013-08-27 15:40:00,82.9,76.0,29.99,NNE,22,3.0,7.0,79,0.29,,,0.29,weatherlink.com 1.10,2013-08-27 19:40:00,
2013-08-27 15:55:00,81.5,76.0,30.00,NNE,25,3.0,7.0,83,0.30,,,0.30,weatherlink.com 1.10,2013-08-27 19:55:00,
2013-08-27 16:10:00,79.3,75.0,30.00,South,180,17.0,20.0,85,0.26,,,0.30,weatherlink.com 1.10,2013-08-27 20:10:00,
2013-08-27 16:25:00,76.7,73.0,30.00,South,185,10.0,13.0,88,0.06,,,0.30,weatherlink.com 1.10,2013-08-27 20:25:00,
2013-08-27 16:40:00,76.5,73.0,29.99,South,185,3.0,6.0,89,0.01,,,0.30,weatherlink.com 1.10,2013-08-27 20:40:00,
2013-08-27 16:55:00,76.8,73.0,29.99,South,185,0.0,5.0,89,0.00,,,0.30,weatherlink.com 1.10,2013-08-27 20:55:00,
2013-08-27 17:26:00,77.8,74.0,30.00,South,185,3.0,4.0,88,0.00,,,0.30,weatherlink.com 1.10,2013-08-27 21:26:00,
2013-08-27 17:55:00,78.3,75.0,30.02,NNW,330,5.0,6.0,89,0.02,,,0.32,weatherlink.com 1.10,2013-08-27 21:55:00,
2013-08-27 18:10:00,78.4,75.0,30.01,ENE,61,4.0,6.0,90,0.02,,,0.32,weatherlink.com 1.10,2013-08-27 22:10:00,
2013-08-27 18:25:00,78.3,75.0,30.00,ENE,62,4.0,6.0,90,0.02,,,0.32,weatherlink.com 1.10,2013-08-27 22:25:00,
2013-08-27 18:40:00,77.8,75.0,30.00,ESE,111,3.0,7.0,90,0.02,,,0.32,weatherlink.com 1.10,2013-08-27 22:40:00,
2013-08-27 18:55:00,77.6,75.0,30.00,ESE,111,2.0,4.0,91,0.00,,,0.32,weatherlink.com 1.10,2013-08-27 22:55:00,
2013-08-27 19:10:00,77.2,75.0,30.00,ESE,111,4.0,5.0,91,0.00,,,0.32,weatherlink.com 1.10,2013-08-27 23:10:00,
2013-08-27 19:25:00,77.1,75.0,30.00,ESE,111,4.0,5.0,92,0.00,,,0.32,weatherlink.com 1.10,2013-08-27 23:25:00,
2013-08-27 19:41:00,77.0,75.0,30.00,ESE,111,3.0,5.0,92,0.00,,,0.32,weatherlink.com 1.10,2013-08-27 23:41:00,
2013-08-27 19:56:00,76.8,74.0,30.00,ESE,111,3.0,5.0,92,0.00,,,0.32,weatherlink.com 1.10,2013-08-27 23:56:00,
2013-08-27 20:11:00,76.6,74.0,30.00,ESE,111,2.0,4.0,92,0.00,,,0.32,weatherlink.com 1.10,2013-08-28 00:11:00,
2013-08-27 20:26:00,76.3,74.0,30.00,ESE,111,0.0,3.0,92,0.00,,,0.32,weatherlink.com 1.10,2013-08-28 00:26:00,
2013-08-27 20:41:00,76.1,74.0,30.00,ESE,111,0.0,4.0,93,0.00,,,0.32,weatherlink.com 1.10,2013-08-28 00:41:00,
2013-08-27 20:56:00,76.0,74.0,30.01,ESE,111,1.0,3.0,93,0.00,,,0.32,weatherlink.com 1.10,2013-08-28 00:56:00,
2013-08-27 21:11:00,76.0,74.0,30.01,ESE,111,0.0,3.0,93,0.00,,,0.32,weatherlink.com 1.10,2013-08-28 01:11:00,
2013-08-27 21:26:00,76.0,74.0,30.02,ESE,111,0.0,1.0,93,0.00,,,0.32,weatherlink.com 1.10,2013-08-28 01:26:00,
2013-08-27 21:41:00,76.2,74.0,30.02,ESE,111,1.0,2.0,93,0.00,,,0.32,weatherlink.com 1.10,2013-08-28 01:41:00,
2013-08-27 21:56:00,76.0,74.0,30.02,ESE,111,0.0,2.0,93,0.00,,,0.32,weatherlink.com 1.10,2013-08-28 01:56:00,
2013-08-27 22:11:00,75.7,74.0,30.02,ESE,111,2.0,4.0,93,0.00,,,0.32,weatherlink.com 1.10,2013-08-28 02:11:00,
2013-08-27 22:26:00,75.5,73.0,30.03,ESE,111,2.0,3.0,93,0.00,,,0.32,weatherlink.com 1.10,2013-08-28 02:26:00,
2013-08-27 22:41:00,75.4,74.0,30.03,ESE,111,2.0,3.0,94,0.00,,,0.32,weatherlink.com 1.10,2013-08-28 02:41:00,
2013-08-27 22:56:00,75.5,74.0,30.03,ESE,111,3.0,3.0,94,0.00,,,0.32,weatherlink.com 1.10,2013-08-28 02:56:00,
2013-08-27 23:11:00,75.2,73.0,30.03,ESE,111,2.0,4.0,94,0.00,,,0.32,weatherlink.com 1.10,2013-08-28 03:11:00,
2013-08-27 23:26:00,75.1,73.0,30.03,ESE,111,0.0,2.0,94,0.00,,,0.32,weatherlink.com 1.10,2013-08-28 03:26:00,
2013-08-27 23:41:00,75.0,73.0,30.03,ESE,111,0.0,3.0,94,0.00,,,0.32,weatherlink.com 1.10,2013-08-28 03:41:00,
2013-08-27 23:56:00,75.1,73.0,30.03,ESE,111,0.0,4.0,94,0.00,,,0.32,weatherlink.com 1.10,2013-08-28 03:56:00,